Location: Unspecified
(33.6682°S, 0.0000°E)
Time: 05:45:47
(UTC+00:00)

Vanguard 1 - Pass Details

Date: 26 June 2019
Orbit: 653 x 3830 km, 34.3° (Epoch: 17 July)

Event Time Altitude Azimuth Distance (km) Brightness Sun altitude
Rises 23:39:03 0° 271° (W) 7,212 14.6 -78.5°
Reaches altitude 10° 23:49:23 10° 296° (WNW) 6,725 14.2 -79.3°
Enters shadow 23:50:51 11° 300° (WNW) 6,703 14.2 -79.4°
Exits shadow 00:14:23 - 357° (N) 7,633 14.5 -79.4°
Sets 00:14:30 0° 357° (N) 7,642 14.5 -79.4°
